Volver al catálogo

LEMUR 2 TILLINFINITY

ActivoCienciaSSO
NORAD 63356·PAYLOAD·🇺🇸 United States

Lanzado Mar 26, 2025 desde Rocket Lab Launch Complex 1

Loading…

Próximos Pases (próximas 24 horas)

TLE

ActualizadoSource: Space-Track

Época: Sep 14, 2026, 05:49 UTC

1 63356U 25061F   26257.24284559  .00003035  00000-0  16400-3 0  9993
2 63356  97.5715 232.8022 0016311 303.4907  56.4766 15.15368967 81123

Sigue LEMUR 2 TILLINFINITY en tiempo real con AllMySat

Download on the App Store